Location: �terpigny
(49.8910°N, 2.9249°E)
Time: 04:30:12
(UTC+00:00)

DIWATA 2B (PO-101) - Pass Details

Date: 29 June 2022
Orbit: 583 x 599 km, 98.0° (Epoch: 13 August)

Event Time Altitude Azimuth Distance (km) Brightness Sun altitude
Exits shadow 01:22:58 14° 157° (SSE) 1,708 ? -14.1°
Maximum altitude 01:26:36 74° 73° (ENE) 628 ? -13.9°
Drops below altitude 10° 01:30:50 10° 349° (N) 1,952 ? -13.6°
Sets 01:33:01 0° 348° (NNW) 2,860 ? -13.5°
